Location: Newark
(25.6667°S, 25.9167°E)
Time: 02:29:38
(UTC+00:00)

Hubble Space Telescope - Visible Passes

Search period start: 19 September 2020 00:00
Search period end: 29 September 2020 00:00
Orbit: 536 x 540 km, 28.5° (Epoch: 18 September)

Date Brightness Start Highest point End Pass type
(mag) Time Alt. Az. Time Alt. Az. Time Alt. Az.
19 Sep 0.7 17:42:38 10° WNW 17:46:46 73° NNE 17:46:46 73° NNE visible
20 Sep 0.7 17:31:54 10° WNW 17:36:04 87° N 17:36:55 56° E visible
21 Sep 0.7 17:21:12 10° W 17:25:22 81° SSW 17:27:00 36° ESE visible
22 Sep 0.9 17:10:31 10° W 17:14:41 72° S 17:17:02 25° ESE visible
22 Sep 3.9 18:51:57 10° WSW 18:52:22 12° WSW 18:52:22 12° WSW visible
23 Sep 1.0 16:59:51 10° W 17:04:01 65° S 17:07:01 18° ESE visible
23 Sep 3.5 18:41:16 10° WSW 18:42:21 17° WSW 18:42:21 17° WSW visible
24 Sep 1.1 16:49:12 10° W 16:53:20 60° S 16:56:58 13° ESE visible
24 Sep 3.1 18:30:35 10° WSW 18:32:18 24° WSW 18:32:18 24° WSW visible
25 Sep 1.2 16:38:33 10° W 16:42:39 58° S 16:46:47 10° ESE visible
25 Sep 2.5 18:19:52 10° WSW 18:22:14 32° WSW 18:22:14 32° WSW visible
26 Sep 1.8 18:09:10 10° WSW 18:12:10 46° WSW 18:12:10 46° WSW visible
27 Sep 1.0 17:58:28 10° WSW 18:02:06 66° W 18:02:06 66° W visible
28 Sep 0.7 17:47:47 10° W 17:51:56 70° NNW 17:52:04 69° N visible
